Wind_Speed
14 12 9 6 1 2 4 5 5 4 3 1 3 3 2 2 2 2 5 18 16 14 12 10 10 9 8 9 10 10 12 12 11 12 12 11 11 12 12 13 13 13 11 10 10 10 10 10 10
15 12 9 5 2 5 3 5 5 5 2 2 2 2 1 2 2 1 6 17 17 15 12 11 10 8 8 9 10 11 13 11 12 13 13 13 12 12 13 13 12 11 10 9 9 9 9 9 9
14 12 9 4 4 5 3 5 6 4 3 4 4 4 4 3 3 5 7 15 17 14 12 10 6 8 9 9 10 10 10 12 12 12 12 11 11 13 12 12 11 9 8 8 9 8 8 8 8
15 14 10 5 3 7 5 4 5 5 6 6 6 7 5 6 7 8 11 16 15 13 12 8 8 10 10 10 10 11 11 9 9 9 8 10 11 12 11 10 9 8 7 7 7 6 7 7 7
16 15 10 6 8 7 7 5 6 7 6 7 8 6 6 4 7 10 15 17 15 12 10 9 10 10 10 11 10 6 4 6 7 7 7 8 10 10 9 9 8 7 6 6 6 6 6 7 8
17 18 10 12 9 10 8 6 7 9 7 7 6 6 6 4 7 14 18 19 17 14 12 11 12 11 11 11 11 8 6 6 8 7 7 8 9 9 8 8 7 6 4 4 5 6 5 5 6
22 19 14 11 12 10 11 6 7 7 6 6 4 4 4 4 10 18 21 19 17 16 14 15 13 12 12 13 13 11 9 8 9 9 9 9 9 8 8 7 5 4 3 3 4 4 4 5 6
25 21 18 20 14 10 12 8 6 8 7 6 4 3 2 2 11 18 22 20 17 15 16 18 16 15 13 12 13 14 13 12 9 8 8 8 8 7 6 5 3 2 2 2 2 2 4 5 5
29 24 17 17 19 14 12 9 8 7 7 6 5 4 4 3 9 17 21 20 17 16 19 22 19 16 13 12 12 13 13 12 11 9 8 7 6 5 4 3 2 1 1 1 1 2 3 4 6
35 31 22 25 19 15 13 11 8 8 7 7 7 5 4 3 7 14 17 18 18 17 19 20 20 15 12 12 14 13 13 12 11 10 8 6 5 4 2 1 1 1 0 1 2 3 5 6 6
37 33 30 24 24 17 17 14 12 11 8 4 4 6 4 5 8 14 19 18 16 18 16 17 17 15 13 12 13 13 12 10 10 8 6 5 4 3 3 3 2 2 2 3 4 5 5 7 8
35 39 29 27 23 20 18 18 15 12 9 8 11 9 8 7 8 14 18 19 20 18 16 15 16 14 13 12 12 12 12 11 8 7 5 5 4 4 4 4 4 5 5 6 7 8 9 9 10
31 30 34 29 25 26 22 19 20 15 11 11 12 10 10 11 12 16 20 22 21 20 17 16 15 14 14 12 10 9 9 9 8 7 7 6 5 6 6 6 7 8 8 9 10 11 11 12 12
22 26 34 38 31 21 25 22 20 19 16 14 14 13 12 12 14 18 22 23 22 21 19 17 16 15 14 13 13 11 9 9 9 8 9 9 9 8 8 9 10 10 10 11 11 12 13 13 13
25 27 29 25 27 24 23 26 25 21 19 16 15 16 15 15 18 19 19 20 22 21 21 20 18 17 16 16 16 15 15 14 13 12 12 12 11 11 11 11 12 13 12 12 12 13 14 15 14
24 26 28 34 33 26 24 20 24 22 22 19 16 17 18 17 17 22 24 23 24 24 22 23 22 20 18 18 18 18 17 16 16 15 15 14 14 14 15 15 15 15 14 14 14 15 16 16 15
26 13 28 22 29 32 29 21 23 24 25 23 20 18 18 20 22 24 26 26 25 24 25 24 24 23 22 22 22 21 20 20 19 18 18 17 17 17 18 17 17 17 16 16 16 16 15 15 14
24 24 25 21 27 28 37 37 18 26 24 25 25 22 19 22 22 23 25 27 27 27 27 27 27 26 26 26 26 25 23 22 21 20 20 20 20 20 19 20 19 18 19 18 17 17 16 15 14
28 29 30 24 25 26 25 41 28 22 31 29 27 25 23 22 21 24 25 28 29 30 31 29 29 28 28 27 27 25 23 23 24 23 24 23 23 22 22 20 20 20 20 19 19 18 17 16 13
31 24 26 25 26 25 25 35 45 32 33 35 28 28 26 24 24 27 28 30 32 32 31 31 30 30 29 29 28 28 27 28 28 28 27 26 23 22 22 22 22 21 21 20 19 19 18 15 11
26 28 25 19 22 31 29 37 40 48 39 37 40 31 29 28 24 27 30 30 31 31 32 31 29 30 31 30 30 31 31 30 29 27 26 24 24 23 23 24 24 23 22 21 20 19 18 15 9
29 23 22 21 12 9 20 14 23 33 49 46 40 41 32 30 27 28 29 31 31 29 28 28 29 29 29 30 32 31 29 29 28 27 28 27 27 26 25 25 26 25 24 22 21 19 18 15 10
23 22 21 20 13 10 14 10 28 29 35 49 49 40 38 31 29 29 30 29 28 27 26 25 27 29 30 31 30 31 31 30 29 30 31 30 27 27 26 26 26 25 25 24 21 20 18 15 13
24 19 16 13 8 10 19 19 21 26 34 33 45 50 42 37 32 30 29 31 30 30 29 29 30 31 31 31 31 32 32 32 32 32 33 33 30 29 28 26 26 26 26 25 23 21 19 16 15
28 25 5 3 5 8 11 17 32 21 23 18 28 38 48 42 36 32 31 32 31 32 30 30 29 28 29 31 33 33 32 33 34 35 35 37 33 30 30 29 28 27 27 26 24 22 20 18 17
28 23 7 6 5 3 11 15 13 18 17 22 14 18 37 47 43 37 33 32 32 34 33 33 31 30 30 30 32 34 34 35 36 36 36 36 34 32 33 33 31 28 28 27 25 23 21 19 18
24 21 17 1 3 3 8 16 27 25 23 19 22 12 20 33 42 37 38 38 36 36 36 36 37 37 37 35 35 35 36 37 38 37 37 37 37 36 37 36 32 29 28 26 26 24 22 20 19
25 30 13 9 5 5 6 10 17 7 4 18 15 13 16 14 22 30 40 43 43 42 42 42 41 41 42 42 41 38 38 38 39 39 39 39 40 41 40 37 35 29 27 27 27 25 23 21 20
26 23 17 10 11 3 3 6 9 6 8 5 12 19 19 23 26 28 31 33 36 44 50 49 47 46 46 44 45 44 42 41 41 42 42 42 42 44 40 40 35 30 29 29 28 27 25 23 22
36 26 31 14 10 18 4 13 2 7 9 10 8 8 4 9 12 15 31 37 38 37 38 42 44 41 43 44 43 44 45 44 44 43 44 45 45 45 45 41 38 31 30 31 30 27 26 24 23
Wind_Direction
200 213 218 214 188 178 192 193 173 166 168 61 52 83 128 116 134 246 199 170 156 153 158 147 132 116 107 98 92 97 107 110 117 123 119 124 120 110 103 104 103 100 94 87 83 77 68 61 56
200 210 217 215 219 231 212 205 184 193 218 294 334 346 235 232 187 267 180 173 158 161 161 153 138 129 128 118 102 106 113 110 105 115 118 119 114 109 108 107 103 98 93 85 80 74 65 61 56
201 215 221 214 231 256 230 198 202 218 261 273 295 293 261 240 224 226 188 179 165 164 165 160 163 155 148 123 110 109 115 117 104 107 110 115 115 111 114 108 104 100 95 84 76 67 60 56 53
204 219 233 230 225 215 190 200 223 244 260 270 289 281 272 247 248 233 197 181 168 167 171 169 157 155 144 129 117 118 108 104 100 98 104 117 117 115 112 109 106 98 88 79 76 70 60 53 48
204 218 224 227 228 215 217 228 239 235 250 265 276 262 279 265 225 199 187 179 168 166 177 173 161 153 142 131 126 138 132 117 103 96 121 124 121 117 114 105 103 104 94 82 69 61 55 49 45
205 217 224 227 230 226 230 255 230 212 246 264 253 261 284 242 209 189 178 176 169 171 176 175 167 155 148 135 125 122 118 117 113 125 139 132 119 114 110 110 108 101 91 71 54 44 38 42 45
211 218 225 221 230 237 228 241 214 204 237 239 234 271 274 243 196 182 175 172 171 176 180 178 168 163 150 146 141 140 136 129 134 146 149 134 127 127 126 123 117 104 77 53 39 32 34 37 32
213 213 227 226 232 229 224 229 220 203 227 227 231 267 259 249 197 182 173 171 173 186 186 180 168 157 150 156 151 146 142 146 149 158 151 140 140 134 130 132 130 118 88 54 41 43 41 32 26
214 216 224 228 233 225 220 217 212 225 229 234 229 248 249 219 198 185 175 173 176 187 179 173 170 165 161 159 155 151 149 153 156 161 159 153 140 143 141 139 129 102 93 95 44 27 18 7 3
210 213 224 229 231 222 211 204 210 227 241 247 233 241 256 207 189 190 177 174 178 186 185 176 176 175 175 171 162 160 159 160 161 162 161 155 155 149 154 156 170 203 209 347 336 338 339 337 336
213 223 223 231 234 228 215 209 206 223 237 229 232 237 248 225 180 182 175 175 180 178 180 174 179 182 181 177 170 166 165 170 169 167 169 166 171 184 195 212 235 252 279 290 294 299 302 306 316
217 212 215 217 220 223 224 222 218 217 231 223 217 220 215 208 191 184 181 182 180 187 187 190 184 185 184 181 180 177 175 175 180 182 186 195 206 220 241 257 272 285 290 294 296 296 300 309 317
218 223 226 221 224 229 231 228 226 220 222 218 223 222 221 204 192 187 193 191 195 194 193 193 192 190 185 186 190 194 194 191 196 204 209 218 227 239 246 256 268 277 284 290 295 300 308 313 317
214 224 222 219 214 224 228 228 228 218 220 215 218 217 217 214 203 201 202 199 198 199 195 194 195 196 197 194 196 201 205 213 221 228 235 237 238 243 254 262 266 270 277 285 293 300 305 308 312
215 208 206 204 208 215 228 231 231 226 223 222 220 220 216 216 214 206 209 210 203 201 200 196 199 201 202 207 206 206 212 218 225 232 241 248 255 259 264 270 275 277 278 283 290 296 301 304 308
203 207 216 223 224 217 222 236 226 230 223 225 225 228 223 224 223 216 209 210 212 209 206 204 203 203 210 215 221 221 223 229 235 239 245 250 257 262 265 268 272 275 279 284 291 295 299 303 308
205 211 221 227 228 227 228 240 224 227 225 225 226 232 231 226 223 219 217 212 214 217 215 215 213 211 211 217 224 230 232 235 239 242 249 256 260 266 269 273 273 276 281 285 290 292 295 300 301
212 216 222 219 225 223 228 233 224 221 222 226 227 230 233 227 224 224 223 222 217 220 221 221 222 221 224 225 228 232 236 242 248 254 257 260 263 264 267 270 271 275 279 286 289 291 295 298 294
224 215 226 227 233 236 245 237 228 216 221 227 226 232 235 232 224 223 221 224 225 225 226 225 228 231 234 235 237 241 246 250 253 255 256 258 260 263 264 264 269 274 280 284 287 289 288 290 287
218 222 234 234 237 240 246 244 238 223 227 228 226 227 233 237 227 226 226 226 228 229 233 233 234 236 238 241 245 248 247 247 249 252 255 259 261 263 266 270 273 276 278 281 283 283 285 289 278
212 220 214 221 231 239 252 258 247 237 232 233 226 226 227 231 230 230 230 230 232 234 235 238 241 243 245 246 247 248 249 251 254 258 260 264 263 265 269 273 276 277 278 281 280 279 284 282 268
218 217 224 225 220 236 235 270 254 250 240 234 232 228 226 230 230 229 230 230 233 235 236 237 238 241 244 246 247 249 252 252 254 256 257 258 260 264 268 273 276 278 279 280 278 279 281 274 255
213 217 225 228 221 243 230 246 260 260 249 235 233 230 228 224 228 230 231 234 235 231 232 237 239 239 241 244 248 250 251 252 253 256 259 261 264 265 267 269 272 275 274 275 277 278 273 261 253
216 211 203 221 231 256 237 224 252 250 260 253 240 236 232 229 227 229 231 234 235 232 234 238 241 242 244 246 248 250 253 256 257 260 265 267 266 266 266 269 274 275 273 274 271 270 260 245 253
201 183 113 180 200 243 210 226 236 251 263 267 255 243 234 233 230 229 231 236 236 238 240 242 243 247 250 252 253 254 255 256 257 258 260 263 265 268 271 272 274 278 273 267 262 257 244 245 256
185 182 153 188 201 243 212 236 255 266 263 253 258 248 232 233 233 231 234 237 236 238 239 239 244 248 254 258 257 256 255 255 257 256 258 263 267 269 272 275 275 273 271 266 256 245 236 245 257
177 201 196 139 273 290 238 269 271 267 267 266 239 226 243 235 233 239 238 238 237 237 239 242 247 253 255 256 257 257 256 256 257 258 259 262 265 267 268 269 272 271 265 257 248 237 239 247 255
218 202 187 197 209 237 250 272 256 310 341 231 238 242 209 219 228 237 239 240 239 242 245 247 249 251 254 256 257 256 257 258 257 257 257 260 263 264 266 271 272 269 263 250 239 234 241 249 256
186 192 203 196 221 242 282 262 288 251 192 185 217 224 231 244 244 235 237 241 245 247 246 249 252 254 255 258 259 258 258 258 257 257 258 259 262 265 264 269 273 261 258 246 234 235 243 250 257
215 210 197 193 195 218 230 253 235 158 190 204 213 206 254 264 274 273 250 240 242 247 248 249 253 260 257 256 255 254 255 258 259 261 260 260 262 264 264 254 268 254 249 239 233 237 244 251 258
Height
3189 3191 3191 3193 3198 3194 3193 3193 3193 3194 3194 3194 3194 3195 3196 3196 3197 3201 3197 3198 3200 3202 3204 3205 3205 3205 3205 3205 3205 3206 3205 3206 3205 3205 3206 3207 3207 3207 3207 3208 3207 3207 3207 3206 3205 3205 3204 3203 3202
3189 3190 3191 3192 3195 3193 3193 3192 3192 3193 3193 3193 3194 3194 3195 3196 3196 3196 3197 3198 3199 3202 3204 3206 3206 3207 3207 3207 3207 3207 3207 3207 3207 3207 3208 3208 3209 3209 3209 3209 3209 3208 3208 3207 3206 3206 3205 3205 3204
3187 3189 3192 3191 3191 3192 3193 3191 3192 3193 3193 3193 3193 3194 3194 3195 3196 3196 3197 3199 3199 3202 3205 3206 3207 3207 3207 3207 3207 3208 3208 3209 3210 3210 3210 3210 3211 3210 3210 3210 3209 3209 3209 3209 3208 3208 3207 3206 3205
3186 3189 3191 3191 3191 3191 3191 3191 3191 3192 3192 3193 3193 3193 3193 3193 3194 3195 3196 3198 3199 3202 3205 3206 3207 3207 3208 3208 3208 3209 3210 3211 3211 3211 3212 3212 3212 3212 3212 3211 3211 3211 3211 3211 3209 3208 3208 3207 3206
3184 3187 3188 3188 3190 3190 3190 3190 3191 3192 3192 3192 3192 3192 3192 3191 3192 3193 3195 3198 3200 3202 3205 3206 3207 3207 3208 3208 3210 3211 3212 3213 3213 3213 3214 3214 3214 3213 3213 3213 3213 3212 3212 3211 3211 3210 3209 3208 3207
3184 3185 3186 3187 3189 3188 3189 3189 3190 3191 3192 3192 3191 3191 3191 3190 3191 3193 3194 3197 3199 3202 3205 3206 3206 3208 3209 3209 3210 3212 3213 3214 3214 3215 3215 3215 3215 3214 3214 3214 3214 3214 3212 3212 3211 3210 3209 3208 3207
3180 3183 3185 3185 3186 3186 3187 3188 3189 3190 3191 3191 3191 3190 3191 3190 3190 3192 3194 3197 3199 3202 3204 3206 3207 3208 3209 3208 3209 3210 3212 3214 3214 3215 3215 3214 3214 3214 3214 3214 3215 3214 3213 3212 3211 3210 3210 3209 3208
3178 3180 3182 3183 3183 3185 3186 3187 3188 3189 3190 3190 3190 3189 3190 3190 3190 3192 3193 3196 3198 3202 3204 3206 3208 3209 3209 3210 3209 3209 3211 3213 3215 3215 3216 3215 3215 3215 3215 3215 3214 3213 3213 3212 3212 3211 3210 3209 3207
3174 3178 3179 3181 3182 3183 3184 3186 3187 3189 3189 3189 3189 3189 3189 3189 3190 3192 3193 3195 3198 3202 3203 3205 3208 3209 3210 3211 3211 3211 3211 3213 3213 3215 3216 3216 3216 3215 3216 3216 3215 3215 3214 3213 3212 3211 3210 3209 3208
3169 3172 3175 3178 3180 3180 3182 3184 3185 3188 3188 3189 3189 3189 3190 3190 3190 3193 3195 3196 3199 3203 3205 3205 3207 3209 3210 3211 3211 3212 3212 3213 3214 3215 3215 3215 3215 3215 3215 3215 3215 3215 3215 3214 3212 3212 3210 3209 3208
3165 3169 3171 3176 3178 3179 3180 3182 3183 3185 3188 3188 3189 3189 3190 3190 3191 3193 3195 3197 3201 3202 3205 3206 3208 3209 3211 3211 3212 3212 3213 3215 3215 3215 3215 3215 3215 3214 3214 3214 3215 3214 3213 3213 3212 3211 3210 3209 3207
3162 3165 3169 3172 3175 3178 3178 3181 3181 3183 3187 3187 3187 3188 3189 3190 3192 3194 3195 3197 3199 3202 3204 3206 3207 3209 3210 3211 3213 3213 3213 3214 3215 3215 3215 3215 3215 3215 3215 3215 3214 3213 3212 3211 3211 3210 3209 3208 3207
3158 3162 3166 3168 3172 3174 3177 3179 3180 3182 3183 3185 3186 3187 3188 3189 3191 3193 3195 3196 3198 3200 3202 3204 3207 3208 3208 3210 3212 3214 3214 3215 3215 3215 3214 3214 3214 3215 3214 3213 3213 3212 3211 3210 3210 3209 3208 3207 3206
3153 3158 3161 3164 3167 3172 3174 3176 3177 3180 3180 3182 3184 3185 3186 3188 3190 3192 3193 3195 3197 3199 3200 3203 3205 3206 3208 3209 3210 3212 3213 3214 3214 3214 3214 3213 3213 3213 3213 3212 3212 3211 3210 3209 3208 3208 3207 3205 3204
3152 3157 3159 3161 3165 3168 3170 3173 3173 3176 3178 3180 3181 3182 3183 3186 3187 3190 3193 3195 3196 3198 3200 3201 3203 3204 3205 3207 3208 3208 3209 3210 3211 3211 3211 3212 3212 3211 3211 3211 3210 3210 3209 3208 3207 3206 3205 3203 3202
3152 3154 3155 3158 3161 3163 3168 3170 3170 3173 3174 3177 3179 3180 3181 3183 3186 3187 3189 3191 3194 3195 3198 3198 3200 3202 3203 3204 3205 3205 3206 3207 3208 3209 3209 3209 3209 3208 3208 3208 3208 3207 3207 3206 3206 3204 3203 3201 3200
3146 3149 3151 3155 3156 3160 3165 3165 3165 3169 3171 3173 3175 3176 3177 3179 3181 3183 3186 3188 3190 3193 3194 3196 3197 3198 3199 3200 3201 3202 3203 3204 3204 3205 3206 3206 3206 3206 3205 3205 3205 3204 3204 3203 3203 3202 3201 3199 3197
3139 3146 3146 3150 3154 3157 3159 3157 3161 3163 3165 3169 3170 3172 3173 3175 3178 3180 3183 3185 3186 3189 3190 3192 3193 3194 3195 3196 3197 3198 3200 3201 3202 3202 3202 3202 3202 3202 3202 3201 3202 3201 3201 3200 3199 3198 3198 3197 3195
3140 3142 3146 3148 3151 3152 3152 3152 3156 3158 3158 3162 3165 3168 3169 3171 3174 3176 3178 3180 3182 3184 3185 3187 3190 3192 3192 3193 3194 3195 3197 3198 3198 3198 3197 3197 3197 3198 3198 3197 3197 3197 3197 3196 3196 3194 3194 3193 3192
3136 3138 3143 3145 3147 3149 3147 3146 3149 3152 3151 3156 3159 3161 3164 3166 3168 3171 3172 3174 3176 3179 3182 3183 3185 3187 3188 3189 3191 3192 3192 3192 3192 3192 3193 3193 3193 3193 3194 3193 3194 3194 3193 3193 3192 3191 3190 3189 3188
3132 3135 3136 3140 3142 3143 3145 3138 3138 3143 3144 3147 3150 3154 3157 3160 3163 3165 3166 3168 3171 3174 3176 3179 3181 3183 3184 3185 3186 3186 3187 3187 3187 3188 3188 3188 3188 3188 3188 3188 3189 3189 3188 3188 3187 3186 3185 3185 3185
3129 3132 3135 3137 3142 3143 3139 3133 3130 3134 3136 3139 3142 3146 3150 3154 3157 3159 3161 3163 3165 3169 3172 3173 3175 3176 3178 3179 3179 3180 3182 3182 3183 3183 3182 3182 3182 3183 3183 3183 3184 3184 3183 3183 3182 3181 3180 3180 3180
3125 3129 3134 3136 3136 3137 3136 3137 3119 3123 3124 3129 3135 3138 3143 3147 3152 3154 3156 3159 3161 3163 3166 3168 3169 3170 3171 3172 3173 3174 3175 3176 3176 3176 3176 3176 3177 3177 3178 3179 3178 3178 3177 3177 3176 3176 3175 3175 3175
3123 3127 3131 3133 3135 3132 3129 3133 3118 3117 3118 3122 3127 3130 3136 3142 3145 3148 3151 3152 3155 3158 3159 3161 3162 3163 3164 3165 3166 3167 3168 3170 3170 3170 3170 3169 3170 3171 3172 3172 3172 3171 3171 3171 3170 3170 3171 3171 3171
3117 3122 3131 3137 3136 3125 3122 3123 3105 3108 3110 3115 3118 3120 3128 3135 3139 3142 3143 3146 3150 3152 3154 3155 3156 3158 3159 3160 3160 3161 3162 3163 3164 3164 3164 3163 3164 3165 3165 3165 3166 3165 3164 3163 3163 3164 3165 3165 3165
3111 3118 3122 3124 3125 3119 3120 3108 3098 3102 3106 3109 3111 3114 3119 3125 3131 3135 3138 3140 3142 3145 3146 3148 3150 3151 3152 3153 3154 3154 3156 3156 3156 3157 3157 3157 3157 3157 3157 3157 3158 3158 3159 3158 3158 3157 3157 3158 3159
3110 3113 3117 3122 3120 3121 3111 3100 3097 3099 3101 3104 3109 3111 3114 3117 3124 3128 3130 3133 3135 3137 3138 3140 3142 3144 3144 3145 3146 3147 3148 3148 3149 3150 3150 3149 3150 3151 3150 3149 3149 3150 3150 3150 3152 3152 3153 3152 3152
3102 3109 3115 3118 3118 3116 3103 3101 3095 3097 3097 3102 3106 3107 3111 3114 3117 3120 3122 3124 3126 3129 3130 3131 3132 3134 3135 3136 3137 3138 3140 3141 3141 3142 3143 3143 3141 3141 3141 3142 3142 3142 3143 3143 3143 3145 3146 3146 3146
3096 3100 3106 3111 3111 3107 3103 3097 3093 3093 3095 3098 3101 3103 3107 3109 3109 3111 3112 3114 3115 3118 3120 3121 3123 3123 3125 3127 3128 3129 3130 3131 3132 3133 3134 3135 3133 3132 3132 3132 3133 3134 3135 3136 3137 3138 3139 3140 3139
3090 3090 3096 3097 3101 3103 3103 3096 3094 3093 3094 3096 3101 3103 3103 3105 3105 3104 3105 3104 3106 3108 3110 3111 3113 3113 3114 3116 3117 3118 3119 3120 3121 3122 3123 3124 3124 3124 3124 3125 3125 3126 3127 3128 3130 3132 3133 3133 3133